Content
SEND FEEDBACK

Daily
Averages
Monthly
Summary
United States of America

ST. LOUIS, MISSOURI


Home > North America > United States > Missouri
Elevation: 163 meters     Latitude: 38 45N     Longitude: 090 22W

WEATHER
 
SELECT A DAY
Number of Records: 196,500;   Date Range: 1/1/95 - 8/30/14
 
SHARE

PRINT THIS DATA

[ ← Previous Day ]
WEATHER ALMANAC - 6 MAY, 2013
[ Next Day → ]
[ °F ]   °C
Weather ElementAverageHighLow
Temperature15.9 °C21.1 °C (3:54 pm)10.6 °C (6:54 am)
Dewpoint11.3 °C13.3 °C (6:54 pm)9.4 °C (6:54 am)
Humidity75.2 %94 % (4:25 am)51 % (3:54 pm)
Barometer1014.2 hPa1015.6 hPa (8:54 am)1013.2 hPa (2:54 am)
Wind Speed9.2 km/h20.4 km/h (10:54 am)
Wind Gust35.2 km/h (12:54 pm)
Weather ElementAverage
Visibility16.1 km
Wind DirectionESE (108.8 °)

Weather ElementTotal
Precipitation---
Heating Degree Days2.5 (Base 18.3)
Growing Degree Days5.9 (Base 10)
Averaged from 25 records on 6 May, 2013
WEATHER CONDITIONS BREAKOUT
WIND DIRECTION BREAKOUT
WEATHER BY HOUR - 6 MAY, 2013
[ °F ]   °C
Local TimeTemperatureDewpointHumidityBarometerVisibilityWind DirectionWind SpeedGust SpeedPrecipitationEventsConditions
1:46 AM13 °C11 °C88 %1013.5 hPa16.1 kmNNE (30°)7.4 km/hPartly Cloudy
1:54 AM13.3 °C10.6 °C84 %1013.5 hPa16.1 kmNNE (20°)7.4 km/hPartly Cloudy
2:54 AM12.8 °C11.1 °C89 %1013.2 hPa16.1 kmNorth (10°)7.4 km/hOvercast
3:54 AM13.3 °C11.1 °C87 %1013.5 hPa16.1 kmNorth (360°)11.1 km/hOvercast
4:25 AM12 °C11 °C94 %1013.2 hPa16.1 kmNorth (350°)9.3 km/hMostly Cloudy
4:54 AM12.8 °C10.6 °C86 %1013.2 hPa16.1 kmNorth (350°)13 km/hOvercast
5:54 AM11.7 °C10 °C89 %1014.2 hPa16.1 kmCalm0 mmRainLight Rain
6:54 AM10.6 °C9.4 °C92 %1014.6 hPa16.1 kmCalm0 mmMostly Cloudy
7:54 AM13.3 °C10.6 °C84 %1015.2 hPa16.1 kmNorth (10°)7.4 km/hMostly Cloudy
8:54 AM15.6 °C11.7 °C78 %1015.6 hPa16.1 kmNNW (340°)13 km/hOvercast
9:54 AM16.7 °C11.7 °C72 %1015.2 hPa16.1 kmNNW (340°)16.7 km/hMostly Cloudy
10:54 AM17.8 °C10 °C60 %1015.2 hPa16.1 kmNorth (360°)20.4 km/hOvercast
11:54 AM18.3 °C10.6 °C61 %1015.2 hPa16.1 kmNorth (10°)16.7 km/hMostly Cloudy
12:54 PM19.4 °C9.4 °C52 %1014.6 hPa16.1 kmNE (40°)18.5 km/h35.2 km/hOvercast
1:54 PM20 °C10.6 °C55 %1014.6 hPa16.1 kmNNE (20°)16.7 km/h29.6 km/hOvercast
2:54 PM20.6 °C11.1 °C54 %1014.2 hPa16.1 kmNorth (10°)16.7 km/hOvercast
3:54 PM21.1 °C10.6 °C51 %1013.9 hPa16.1 kmNE (50°)18.5 km/hOvercast
4:54 PM19.4 °C11.1 °C59 %1013.9 hPa16.1 kmENE (70°)14.8 km/hOvercast
5:54 PM18.9 °C11.1 °C60 %1014.2 hPa16.1 kmENE (70°)9.3 km/hOvercast
6:54 PM17.8 °C13.3 °C75 %1013.9 hPa16.1 kmCalmMostly Cloudy
7:54 PM17 °C13 °C77 %1014.6 hPa16.1 kmWest (280°)5.6 km/hOvercast
8:54 PM16.7 °C12.8 °C78 %1014.6 hPa16.1 kmCalmOvercast
9:54 PM15.6 °C13.3 °C86 %1015.2 hPa16.1 kmCalmOvercast
10:54 PM15.6 °C12.8 °C83 %1014.9 hPa16.1 kmCalmOvercast
11:54 PM15 °C12.8 °C87 %1015.2 hPa16.1 kmCalmOvercast
Hourly data recorded from KSUS, located 0 kilometers away from St. Louis, Missouri







STORIES FROM OUR PARTNERS